Gunnison, CO

1:30 AM MDT on September 19, 2019 (GMT -0600)
Gunnison County

Weather History for KGUC - July, 2019

Change the Weather History Date:

Saturday, July 13, 2019

  Actual Average Record
Temperature  
Mean Temperature 62 °F -  
Max Temperature 80 °F 77 °F 89 °F (2003)
Min Temperature 45 °F 44 °F 39 °F (2008)
Degree Days  
Heating Degree Days 2    
Growing Degree Days 12 (Base 50)    
Moisture  
Dew Point 44 °F    
Average Humidity 54    
Maximum Humidity 82    
Minimum Humidity 24    
Precipitation  
Precipitation 0.00 in - - ()
Sea Level Pressure  
Sea Level Pressure 30.15 in    
Wind  
Wind Speed 3 mph (West)    
Max Wind Speed 18 mph    
Max Gust Speed 25 mph    
Visibility 10 miles    
Events      
Averages and records for this station are not official NWS values.
T = Trace of Precipitation, MM = Missing Value Source: NWS Daily Summary

Daily Weather History Graph

Daily Weather History Graph

Search for Another Location

Airport or City:

Astronomy

Jul. 13, 2019 Rise Set
Actual Time 5:54 AM MDT 8:32 PM MDT
Civil Twilight 5:23 AM MDT 9:03 PM MDT
Nautical Twilight 4:44 AM MDT 9:42 PM MDT
Astronomical Twilight 4:00 AM MDT 10:25 PM MDT
Moon 5:58 PM MDT (7/13) 3:15 AM MDT (7/13)
Length of Visible Light 15h 40m
Length of Day
14h 38m
Waxing Gibbous, 90% of the Moon is Illuminated
Jul 13
Waxing Gibbous
Jul 16
Full
Jul 24
Last Quarter
Jul 31
New
Aug 7
First Quarter

Hourly Weather History & Observations

Time (MDT) Temp. Dew Point Humidity Pressure Visibility Wind Dir Wind Speed Gust Speed Precip Events Conditions
12:56 AM 54.0 °F 42.1 °F 64% 30.12 in 10.0 mi Variable 3.5 mph - N/A   Clear
1:56 AM 50.0 °F 44.1 °F 80% 30.12 in 10.0 mi Calm Calm - N/A   Clear
2:56 AM 48.9 °F 42.1 °F 77% 30.14 in 10.0 mi Calm Calm - N/A   Clear
3:56 AM 48.0 °F 41.0 °F 77% 30.14 in 10.0 mi Calm Calm - N/A   Clear
4:56 AM 46.0 °F 39.9 °F 79% 30.17 in 10.0 mi Calm Calm - N/A   Clear
5:56 AM 45.0 °F 39.9 °F 82% 30.21 in 10.0 mi Calm Calm - N/A   Clear
6:56 AM 46.0 °F 39.9 °F 79% 30.22 in 10.0 mi Calm Calm - N/A   Clear
7:56 AM 52.0 °F 42.1 °F 69% 30.23 in 10.0 mi Calm Calm - N/A   Clear
8:56 AM 57.9 °F 41.0 °F 53% 30.21 in 10.0 mi Calm Calm - N/A   Clear
9:56 AM 64.0 °F 43.0 °F 46% 30.17 in 10.0 mi Calm Calm - N/A   Clear
10:56 AM 71.1 °F 45.0 °F 39% 30.14 in 10.0 mi Variable 3.5 mph - N/A   Clear
11:56 AM 75.0 °F 45.0 °F 34% 30.11 in 10.0 mi West 5.8 mph - N/A   Clear
12:56 PM 80.1 °F 43.0 °F 27% 30.08 in 10.0 mi SW 5.8 mph - N/A   Clear
1:56 PM 80.1 °F 39.9 °F 24% 30.08 in 10.0 mi West 4.6 mph - N/A   Clear
2:56 PM 78.1 °F 45.0 °F 31% 30.09 in 10.0 mi SW 8.1 mph - N/A   Clear
3:56 PM 72.0 °F 45.0 °F 38% 30.16 in 10.0 mi WSW 12.7 mph 25.3 mph N/A   Clear
4:56 PM 72.0 °F 45.0 °F 38% 30.17 in 10.0 mi WSW 18.4 mph 23.0 mph N/A   Scattered Clouds
5:56 PM 71.1 °F 46.0 °F 41% 30.16 in 10.0 mi WSW 10.4 mph - N/A   Clear
6:56 PM 73.9 °F 48.0 °F 40% 30.14 in 10.0 mi Calm Calm - N/A   Clear
7:56 PM 70.0 °F 46.9 °F 44% 30.13 in 10.0 mi West 3.5 mph - N/A   Clear
8:56 PM 64.0 °F 46.9 °F 54% 30.14 in 10.0 mi NNW 6.9 mph - N/A   Clear
9:56 PM 63.0 °F 46.9 °F 56% 30.15 in 10.0 mi NNW 5.8 mph - N/A   Clear
10:56 PM 60.1 °F 48.0 °F 64% 30.15 in 10.0 mi NNE 8.1 mph - N/A   Clear
11:56 PM 55.9 °F 46.0 °F 69% 30.16 in 10.0 mi NNW 4.6 mph - N/A   Clear